Location: Sunny Point
(33.0946°N, 85.0574°W)
Time: 05:50:59
(UTC+00:00)

DX 1 - Visible Passes

Search period start: 16 July 2024 00:00
Search period end: 26 July 2024 00:00
Orbit: 607 x 619 km, 98.3° (Epoch: 15 July)

Date Brightness Start Highest point End Pass type
(mag) Time Alt. Az. Time Alt. Az. Time Alt. Az.
16 Jul ? 05:18:45 10° NNE 05:19:17 13° NNE 05:19:17 13° NNE visible
16 Jul ? 06:55:56 10° NNW 06:56:18 11° NW 06:56:18 11° NW visible
17 Jul ? 05:33:44 10° NNE 05:34:37 16° NNE 05:34:37 16° NNE visible
18 Jul ? 05:48:52 10° NNE 05:49:57 17° NNE 05:49:57 17° NNE visible
19 Jul ? 06:04:08 10° N 06:05:16 18° N 06:05:16 18° N visible
20 Jul ? 06:19:30 10° N 06:20:35 17° NNW 06:20:35 17° NNW visible
21 Jul ? 06:35:03 10° NNW 06:35:53 14° NNW 06:35:53 14° NNW visible
22 Jul ? 05:14:07 10° NE 05:14:10 10° NE 05:14:10 10° NE visible
22 Jul ? 06:50:48 10° NNW 06:51:11 11° NNW 06:51:11 11° NNW visible
23 Jul ? 05:29:01 10° NNE 05:29:27 13° NNE 05:29:27 13° NNE visible
24 Jul ? 05:44:03 10° NNE 05:44:44 14° NNE 05:44:44 14° NNE visible
25 Jul ? 05:59:13 10° N 06:00:01 15° N 06:00:01 15° N visible
